User: anonymous   Login
Location: Appleton
(44.2618°N, 88.4157°W)
Time: 14:55:19
(UTC+00:00)
Language:

Tiros 1 despin weight - Orbit

View from above orbital plane
View from above orbital plane
View from above satellite
View from above satellite

Ground track
Ground track

The orbit data is extracted from the following two-line orbital elements,

1   115U 60002D   21129.14004790 -.00000030  00000-0  23368-4 0  9995
2   115  48.1652 147.9486 0035224 245.1739 114.5508 14.83759782261334
Epoch (UTC): 09 May 2021 03:21:40
Eccentricity: 0.0035224
inclination: 48.1652°
perigee height: 593 km
apogee height: 642 km
right ascension of ascending node: 147.9486°
argument of perigee: 245.1739°
revolutions per day: 14.83759782
mean anomaly at epoch: 114.5508°
orbit number at epoch: 26133

The dashed part of the orbit path shows where the satellite is in the earth's shadow,  

DLR